Regional Weather Roundup
Issued by NWS Binghamton, NY

Home | Current Version | Previous Version | Text Only | Print | Product List | Glossary On
Versions: 1 2 3 4 5 6 7 8 9 10 11 12 13 14 15 16 17 18 19 20 21 22 23 24 25 26 27 28 29 30 31 32 33 34 35 36 37 38 39 40 41 42 43 44 45 46 47 48 49 50
000
ASUS41 KBGM 212010
RWRBGM

REGIONAL WEATHER ROUNDUP
NATIONAL WEATHER SERVICE BINGHAMTON NY
400 PM EDT MON AUG 21 2017

Note: "fair" indicates few or no clouds below 12,000 feet with no
significant weather and/or obstructions to visibility.

* = Station(s) that does not report precipitation, such as rain,
snow, etc, also no thunder or fog.

NYZ009-015>018-022>025-036-037-044>046-055>057-062-212100
...Central New York...

CITY           SKY/WX    TMP DP  RH WIND       PRES   REMARKS
Binghamton     SUNNY     78  67  68 S9        30.14F
Cortland       FAIR      81  68  65 S7        30.11F
Dansville      MOSUNNY   86  68  54 NW6       30.08F HX  89
Elmira         LGT RAIN  78  78 100 N6G21     30.09R
Seneca Falls   CLEAR     84  63  48 S5        30.07F HX  85
Ithaca         MOSUNNY   83  70  64 S8        30.12F HX  87
Hamilton       SUNNY     81  61  50 S3        30.12S
Hornell        SUNNY     86  61  42 W8        30.14S HX  86
Monticello     MOSUNNY   80  67  64 S8        30.17F
Oneonta        SUNNY     77 N/A N/A SW7       30.15F
Penn Yan       SUNNY     85  66  53 VRB3      30.09F HX  87
Rome           PTSUNNY   83  61  47 S5        30.08S
Sidney         SUNNY     81  66  61 SW3       30.12F
Syracuse       MOSUNNY   86  63  45 SW7       30.06S HX  87
$$

PAZ038>040-043-044-047-048-072-212100
...Northeast Pennsylvania...

CITY           SKY/WX    TMP DP  RH WIND       PRES   REMARKS
Hazleton         N/A     81  70  69 S6        30.20F
Scranton       MOSUNNY   85  69  58 SW8       30.13F HX  89
$$
&&
KEY
WCI = Wind Chill Index
VSB = Visibility
HX  = Heat Index
$$



USA.gov is the U.S. government's official web portal to all federal, state and local government web resources and services.